Find OPS 9323

NORAD ID: 2650 Int'l Des: 1967-003 Owner: AFSSD Country: US operational
MEOCIRCULAR

Aktuelle Ansicht

3D-Globus wird geladen...

About OPS 9323

OPS 9323 (NORAD 2650) is a satellite by AFSSD of US. It operates in MEO, CIRCULAR orbit

Nächste Überflüge

Passes for default location (London). Set your location on the main map for personalized predictions.

Höhenverlauf

Loading altitude history...

Zweizeiliger Elementsatz

1 2650U 67003C 26194.70848333 -.00000091 00000-0 00000+0 0 9997
2 2650 8.3377 44.4928 0034110 113.1809 52.8047 1.08221953140738
Epoch: 13. Juli 2026 • Age: 12 hours

Aktueller Status

Höhe 33755.4 km
Apogäum / Perigäum N/A
Geschwindigkeit 3.15 km/s
Subsatellitenpunkt -0.52°S, 37.55°E
Typ other

Most Searched